This demonstration page uses our WeatherBlox Daily Observations layout. Learn more.

Left ArrowRight Arrow

Hourly Observations for March 24, 2021

Temp ( °F °C ) Dew Point ( °F °C ) Humidity (%) Winds ( mph kmh ) Pressure ( in mb ) Visibility ( mi km ) Precip ( " mm )
12:51 am 00:51 Cloudy 44 6.7 41 5 89 89 SE 5 7 29.68 1005 10 16 N/A
1:51 am 01:51 Cloudy 45 7.2 41 5 86 86 N N/A 29.67 1005 10 16 N/A
2:51 am 02:51 Cloudy 45 7.2 41 5 86 86 ENE 5 7 29.65 1004 10 16 0.00 0.00
3:51 am 03:51 Cloudy 45 7.2 41 5 86 86 E 5 7 29.65 1004 10 16 N/A
4:51 am 04:51 Mostly Cloudy 44 6.7 40 4.4 85 85 ENE 8 13 29.65 1004 10 16 N/A
5:51 am 05:51 Mostly Cloudy 44 6.7 39 3.9 83 83 undefined N/A 29.68 1005 10 16 N/A
6:06 am 06:06 Cloudy with Light Rain 43 6.1 40 4.4 89 89 WNW 18 30 29.78 1008 10 16 0.00 0.00
6:39 am 06:39 Cloudy 42 5.6 39 3.9 89 89 N 8 13 29.79 1009 10 16 0.08 2.03
6:51 am 06:51 Cloudy 42 5.6 39 3.9 89 89 NW 8 13 29.71 1006 10 16 0.08 2.03
7:51 am 07:51 Cloudy 43 6.1 40 4.4 89 89 W 12 19 29.74 1007 10 16 N/A
8:03 am 08:03 Cloudy 43 6.1 41 5 93 93 WNW 9 15 29.81 1010 10 16 N/A
8:51 am 08:51 Cloudy with Light Rain 42 5.6 40 4.4 92 92 NW 13 20 29.78 1008 10 16 0.01 0.25
9:51 am 09:51 Mostly Cloudy 47 8.3 42 5.6 83 83 WNW 12 19 29.78 1008 10 16 0.01 0.25
10:51 am 10:51 Cloudy 49 9.4 40 4.4 71 71 WNW 13 20 29.77 1008 10 16 N/A
11:51 am 11:51 Partly Cloudy 52 11.1 40 4.4 64 64 WNW 12 19 29.76 1008 10 16 N/A
12:51 pm 12:51 Partly Cloudy 55 12.8 37 2.8 51 51 W 14 22 29.74 1007 10 16 N/A
2:51 pm 14:51 Mostly Sunny 57 13.9 35 1.7 44 44 WNW 23 37 29.72 1006 10 16 N/A
3:19 pm 15:19 Cloudy with Light Rain 51 10.6 41 5 69 69 NNW 9 15 29.77 1008 10 16 0.00 0.00
3:42 pm 15:42 Cloudy 52 11.1 39 3.9 61 61 WNW 24 39 29.76 1008 10 16 0.00 0.00
3:51 pm 15:51 Cloudy with Rain 48 8.9 42 5.6 80 80 W 14 22 29.76 1008 6 10 0.00 0.00
4:51 pm 16:51 Mostly Sunny 53 11.7 40 4.4 61 61 NNW 17 28 29.76 1008 10 16 0.01 0.25
5:51 pm 17:51 Mostly Sunny 53 11.7 38 3.3 57 57 NW 15 24 29.78 1008 10 16 N/A
6:51 pm 18:51 Clear 50 10 39 3.9 66 66 WNW 8 13 29.83 1010 10 16 N/A
7:51 pm 19:51 Cloudy with Light Rain 48 8.9 39 3.9 71 71 N 13 20 29.85 1011 10 16 0.00 0.00
8:51 pm 20:51 Cloudy 48 8.9 39 3.9 71 71 W 6 9 29.88 1012 10 16 0.00 0.00
9:51 pm 21:51 Cloudy 47 8.3 40 4.4 77 77 S 5 7 29.88 1012 10 16 N/A
10:51 pm 22:51 Mostly Cloudy 45 7.2 39 3.9 80 80 SSE 5 7 29.88 1012 10 16 N/A
11:51 pm 23:51 Cloudy 45 7.2 40 4.4 83 83 N N/A 29.87 1011 10 16 N/A

Powered by AerisWeather